Location: Clay (historical)
(35.1476°N, 89.8179°W)
Time: 04:43:19
(UTC+00:00)

Lacrosse 4 Rocket - Visible Passes

Search period start: 14 May 2026 00:00
Search period end: 24 May 2026 00:00
Orbit: 506 x 567 km, 68.0° (Epoch: 13 May)

Date Brightness Start Highest point End Pass type
(mag) Time Alt. Az. Time Alt. Az. Time Alt. Az.
14 May 4.3 06:58:05 13° NNW 06:58:05 13° NNW 06:58:40 10° N visible
15 May 4.4 06:48:53 12° NNW 06:48:53 12° NNW 06:49:21 10° N visible
16 May 4.4 06:39:38 11° NNW 06:39:38 11° NNW 06:40:00 10° NNW visible
17 May 4.5 06:30:20 11° NNW 06:30:20 11° NNW 06:30:34 10° NNW visible
18 May 4.5 06:20:58 10° NNW 06:20:58 10° NNW 06:21:02 10° NNW visible
20 May 4.1 04:26:40 12° NNE 04:26:40 12° NNE 04:27:01 10° NNE visible
21 May 3.8 04:17:02 16° NNE 04:17:02 16° NNE 04:17:54 10° NNE visible
22 May 3.4 04:07:17 22° NNE 04:07:17 22° NNE 04:08:46 10° NNE visible
23 May 2.8 03:57:21 31° N 03:57:21 31° N 03:59:36 10° NNE visible
